Regional Weather Roundup
Issued by NWS Green Bay, WI

Home | Current Version | Previous Version | Text Only | Print | Product List | Glossary On
Versions: 1 2 3 4 5 6 7 8 9 10 11 12 13 14 15 16 17 18 19 20 21 22 23 24 25 26 27 28 29 30 31 32 33 34 35 36 37 38 39 40 41 42 43 44 45 46 47 48 49 50
000
ASUS43 KGRB 210310
RWRGRB

NORTH-CENTRAL AND NORTHEAST WISCONSIN REGIONAL WEATHER ROUNDUP
NATIONAL WEATHER SERVICE GREEN BAY WI
1000 PM CDT SAT SEP 20 2014

WIZ005-009-010>012-018-019-210400-
NORTH CENTRAL WISCONSIN

CITY           SKY/WX    TMP DP  RH WIND       PRES   REMARKS
IRONWOOD       CLOUDY    54  52  94 CALM      29.66F
MANITOWISH WTR CLOUDY    53  53 100 W10G17    29.72R
ARBOR VITAE    CLOUDY    57  54  90 CALM      29.70F
EAGLE RIVER    CLOUDY    54  53  96 CALM      29.69F
LAND O LAKES   CLOUDY    50  49  97 CALM      29.71F
RHINELANDER    CLOUDY    56  52  86 W5        29.71F
PHILLIPS       HVY RAIN  53  52  97 NW3       29.73F
ANTIGO         CLOUDY    60  54  80 NW5       29.70F
TOMAHAWK       LGT RAIN  54  50  89 W14G22    29.75R
MERRILL        TSTM      56  55  95 NW15G24   29.74R
$$

WIZ013-073-210400-
NORTHEAST WISCONSIN

CITY           SKY/WX    TMP DP  RH WIND       PRES   REMARKS
IRON MOUNTAIN  CLOUDY    58  52  80 N5        29.69R
MARINETTE      CLOUDY    61  55  82 SW3       29.68R
OCONTO         CLOUDY    62  61  99 CALM      29.65F
$$

WIZ017-030-035>037-045-210400-
CENTRAL WISCONSIN

CITY           SKY/WX    TMP DP  RH WIND       PRES   REMARKS
MEDFORD        CLOUDY    54  52  95 NW5       29.74S
WAUSAU         HVY RAIN  58  54  86 W23G37    29.73R FOG
MOSINEE        TSTM      63  59  88 W25G41    29.75R
MARSHFIELD     CLOUDY    57  54  89 NW8       29.73F
WISC RAPIDS    RAIN      58  56  93 N3        29.74R FOG
STEVENS POINT  TSTM      57  54  88 W12G32    29.76R
WAUPACA        CLOUDY    64  59  82 SW3       29.70F
SHAWANO        CLOUDY    66  58  74 W5        29.68F
CLINTONVILLE   CLOUDY    63  55  77 W3        29.67F
$$

WIZ038-039-048-051-210400-
FOX VALLEY

CITY           SKY/WX    TMP DP  RH WIND       PRES   REMARKS
NWS GREEN BAY  CLOUDY    65  58  78 SW5       29.68F
APPLETON       MOCLDY    63  55  77 SW6       29.70F
OSHKOSH        MOCLDY    66  60  81 SW6       29.70F
FOND DU LAC    MOCLDY    64  61  90 SW5       29.71F
$$

WIZ022-050-052-210400-
EAST CENTRAL WISCONSIN

CITY           SKY/WX    TMP DP  RH WIND       PRES   REMARKS
STURGEON BAY   CLOUDY    64  61  88 CALM      29.66F
MANITOWOC      PTCLDY    66  62  87 W6        29.69S
SHEBOYGAN      PTCLDY    63  60  90 SW7       29.70F
$$

LMZ563-521-522-541>543-210400-
LAKESHORE

STATION/POSITION TIME  TEMP    WIND        PRES    VSBY  WAVE
                       AIR SEA DIR/SP/G                  HT/PER
                 (UTC) (F)     (DEG/KT/KT) (MB)    (MI)  (FT/S)
SHEBOYGAN LKSHOR 0300   67 54  240/  9/ 10 1005.6F
KEWAUNEE LKSHORE 0300   67     270/  4/  6 1004.1F
NORTHPORT PIER   0300   61      30/  8/ 17 1005.1S
N MID LAKE BUOY  0300   59 58   30/ 12/ 14 1004.8F         3/ 6
S GREEN BAY BUOY 0300   63     VRB  8/  8  1005.4F
SISTER BAY LKSHO 0300           80/  9/ 19   N/A
CHAMBERS ISLAND  0300   61      30/ 14/ 17 1004.7S
MENOMINEE LKSHOR 0300   63     210/  7/  9 1005.4R
$$



USA.gov is the U.S. government's official web portal to all federal, state and local government web resources and services.